sat.trackr.live / text

‹ back to catalog

BEIDOU-2 M6 (C14)

NORAD 38775 · 2012-050B

PAYLOAD ACTIVE UNKNOWN

§ Identity

Operator
Country
PRC
Launch date
2012-09-18
Launch site
XICLF
Launch vehicle
Mass (kg)
RCS (m²)
10.00

Purposes: nav

External: N2YO · Heavens-Above · Gunter

§ Orbital elements

Epoch: 2026-09-19T08:02:17.178720Z

Period
773.23 min
Inclination
56.6311°
Eccentricity
0.0010791
Mean motion
1.86231049 rev/d
Perigee alt
21,497.9 km
Apogee alt
21,558.2 km
Semi-major
27,906.2 km
B*
0.0000e+0
RAAN
59.7868°
Arg perigee
3.8690°
Mean anomaly
356.1589°
Rev number
9,506

§ Raw data

BEIDOU-2 M6 (C14)1 38775U 12050B   26262.33492105 -.00000013  00000+0  00000+0 0  99962 38775  56.6311  59.7868 0010791   3.8690 356.1589  1.86231049 95062

JSON: /api/v1/satellites/38775 · /tle

For live sub-satellite position, see the globe view (requires WebGL).

§ Visibility from observer

Set your observer location to see the next 7 days of passes ≥ 10°. The values pass through the URL so the page stays shareable.

No JS? Fill the form by hand. The geolocation button needs JavaScript.